Regional Weather Roundup
Issued by NWS Cleveland, OH

Home | Current Version | Previous Version | Graphics & Text | Print | Product List | Glossary On
Versions: 1 2 3 4 5 6 7 8 9 10 11 12 13 14 15 16 17 18 19 20 21 22 23 24 25 26 27 28 29 30 31 32 33 34 35 36 37 38 39 40 41 42 43 44 45 46 47 48 49 50
000
ASUS41 KCLE 301200
RWRCLE
OHIO REGIONAL WEATHER ROUNDUP
NATIONAL WEATHER SERVICE WILMINGTON, OH
800 AM EDT MON MAR 30 2015

NOTE: "FAIR" INDICATES FEW OR NO CLOUDS BELOW 12,000 FEET WITH NO
SIGNIFICANT WEATHER AND/OR OBSTRUCTIONS TO VISIBILITY.

OHZ001>008-015>018-024>027-034-035-043-044-301300-
   NORTHWEST OHIO

CITY           SKY/WX    TMP DP  RH WIND       PRES   REMARKS
DEFIANCE       CLEAR     38  29  70 W6        29.96R
FINDLAY        CLEAR     35  29  78 W10       29.93R WCI  27
TOLEDO EXPRESS CLEAR     36  28  73 W12       29.92R
TOLEDO EXEC    CLEAR     38  28  67 W14       29.92R
LIMA           CLEAR     39  29  67 W16       29.96R
$$

OHZ009>014-019>023-028>033-038-089-301300-
   NORTHEAST OHIO

CITY           SKY/WX    TMP DP  RH WIND       PRES   REMARKS
CLE-HOPKINS    PTCLDY    38  31  76 W12       29.91R
CLE-LAKEFRONT  CLOUDY    38  32  79 W14       29.88R
CUY CO. ARPT   MOCLDY    41  34  75 W12G23    29.87R
LORAIN-ELYRIA  CLEAR     38  31  76 W12       29.90R
ASHTABULA      PTCLDY    38  30  73 W10G20    29.85R
AKRON-CANTON   MOCLDY    40  31  70 W8G17     29.90R
WOOSTER        NOT AVBL
MANSFIELD      CLEAR     37  31  78 W9        29.91R
YOUNGSTOWN     MOCLDY    39  30  70 W10       29.85R
$$

OHZ042-051>053-060>062-070>072-077>081-301300-
  SOUTHWEST OHIO

CITY           SKY/WX    TMP DP  RH WIND       PRES   REMARKS
CINC-COVINGTON PTCLDY    40  32  73 SW3       30.05R
CINC-LUNKEN    CLEAR     34  32  92 VRB5      30.07R WCI  30
HAMILTON       CLEAR     34  32  92 W3        30.07R
DAYTON         NOT AVBL
WRIGHT-PAT AFB NOT AVBL
DAYTON GENERAL CLEAR     39  32  76 W3        30.02R
WILMINGTON     CLEAR     39  31  72 W7        30.03R
$$

OHZ036-037-039>041-045>050-054>059-063>069-073>076-082>088-301300-
  CENTRAL AND SOUTHEAST OHIO

CITY           SKY/WX    TMP DP  RH WIND       PRES   REMARKS
COLUMBUS       FAIR      38  32  79 W9        29.98R
OSU AIRPORT    CLEAR     36  30  79 W8        29.98R
BOLTON FIELD   CLEAR     37  32  81 W6        29.99R
RICKENBACK AFB NOT AVBL
NEWARK         CLEAR     40  32  73 W9        29.97R
MARION         CLEAR     37  30  75 W8        29.95R
LANCASTER      CLEAR     39  33  79 W7        29.99R
ZANESVILLE     PTCLDY    39  30  70 W7        29.96R
NEW PHILLY     CLEAR     42  30  62 W5        29.93R
$$


USA.gov is the U.S. government's official web portal to all federal, state and local government web resources and services.